GW0828 Weather Reports


Display with metric or nautical units.
time (UTC)temp
F
wind
direction
speed
MPH
gust
MPH
rain 1hr
in
rain 24hr
in
rain mn
in
humidity
%
barometer
mb
20260504050537 57 317 2.0 5.0 0.00 0.00 0.00 36 1011.5
20260504050117 57 266 2.0 9.0 0.00 0.00 0.00 37 1011.5
20260504045537 58 347 2.0 9.0 0.00 0.00 0.00 36 1011.4
20260504045040 58 19 4.0 14.0 0.00 0.00 0.00 34 1011.5
20260504044545 59 347 3.0 14.0 0.00 0.00 0.00 33 1011.6
20260504044037 59 44 7.0 14.0 0.00 0.00 0.00 34 1011.4
20260504043538 58 306 5.0 10.0 0.00 0.00 0.00 34 1011.6
20260504043047 59 329 2.0 18.0 0.00 0.00 0.00 34 1011.6
20260504042538 59 246 4.0 21.0 0.00 0.00 0.00 33 1011.3
20260504042037 60 135 9.0 21.0 0.00 0.00 0.00 34 1011.0
20260504041548 60 86 8.0 16.0 0.00 0.00 0.00 33 1010.9
20260504041038 61 2 6.0 16.0 0.00 0.00 0.00 32 1011.1
20260504040537 61 79 7.0 22.0 0.00 0.00 0.00 32 1011.0
20260504040048 61 44 10.0 22.0 0.00 0.00 0.00 31 1011.3
20260504035540 61 22 10.0 23.0 0.00 0.00 0.00 31 1011.3
20260504035040 61 39 13.0 23.0 0.00 0.00 0.00 31 1011.2
20260504034550 61 83 9.0 20.0 0.00 0.00 0.00 32 1011.3
20260504034040 62 55 12.0 20.0 0.00 0.00 0.00 30 1011.5
20260504033540 63 33 8.0 21.0 0.00 0.00 0.00 28 1011.2
20260504033047 63 6 10.0 21.0 0.00 0.00 0.00 27 1011.1
20260504032538 64 79 7.0 20.0 0.00 0.00 0.00 27 1010.9
20260504032040 63 94 13.0 20.0 0.00 0.00 0.00 25 1010.7
20260504031603 63 76 7.0 14.0 0.00 0.00 0.00 25 1010.8
20260504031037 63 66 5.0 11.0 0.00 0.00 0.00 26 1010.9
20260504030538 62 1 5.0 11.0 0.00 0.00 0.00 27 1010.9
20260504030050 62 43 5.0 11.0 0.00 0.00 0.00 32 1010.9
20260504025538 62 0 1.0 6.0 0.00 0.00 0.00 32 1010.6
20260504025038 62 43 0.0 8.0 0.00 0.00 0.00 33 1010.4
20260504024546 62 35 4.0 8.0 0.00 0.00 0.00 33 1010.5
20260504024037 63 36 2.0 4.0 0.00 0.00 0.00 32 1010.4
20260504023537 63 135 0.0 2.0 0.00 0.00 0.00 35 1010.2
20260504023049 64 135 0.0 2.0 0.00 0.00 0.00 33 1010.2
20260504022540 64 0 0.0 2.0 0.00 0.00 0.00 34 1010.3
20260504022036 65 135 1.0 3.0 0.00 0.00 0.00 31 1010.2
20260504021546 65 135 1.0 3.0 0.00 0.00 0.00 26 1010.2
20260504021036 65 128 2.0 3.0 0.00 0.00 0.00 27 1010.1
20260504020538 65 0 1.0 3.0 0.00 0.00 0.00 27 1010.2
20260504020045 65 324 0.0 4.0 0.00 0.00 0.00 28 1010.2
20260504015537 65 0 0.0 5.0 0.00 0.00 0.00 26 1010.2
20260504015037 66 127 3.0 5.0 0.00 0.00 0.00 26 1009.9
20260504014549 66 111 0.0 3.0 0.00 0.00 0.00 26 1010.1
20260504014037 67 335 0.0 2.0 0.00 0.00 0.00 26 1010.1
20260504013537 67 6 0.0 1.0 0.00 0.00 0.00 25 1010.1
20260504013051 67 0 0.0 3.0 0.00 0.00 0.00 26 1010.0
20260504012537 67 0 0.0 3.0 0.00 0.00 0.00 27 1010.0
20260504012036 68 17 0.0 6.0 0.00 0.00 0.00 24 1010.1
20260504011553 68 0 1.0 6.0 0.00 0.00 0.00 24 1010.1
20260504011037 68 136 1.0 5.0 0.00 0.00 0.00 22 1010.1
20260504010538 68 140 2.0 6.0 0.00 0.00 0.00 22 1010.0
20260504010047 69 91 3.0 6.0 0.00 0.00 0.00 22 1010.1
20260504005537 69 125 2.0 4.0 0.00 0.00 0.00 21 1010.1
20260504005037 70 0 0.0 3.0 0.00 0.00 0.00 22 1010.2
20260504004545 70 142 0.0 4.0 0.00 0.00 0.00 19 1010.2
20260504004037 70 122 0.0 4.0 0.00 0.00 0.00 20 1010.3
20260504003537 70 155 1.0 4.0 0.00 0.00 0.00 20 1010.3
20260504003047 70 127 1.0 3.0 0.00 0.00 0.00 21 1010.4
20260504002537 70 0 0.0 5.0 0.00 0.00 0.00 18 1010.3
20260504002037 70 192 1.0 8.0 0.00 0.00 0.00 19 1010.3
20260504001559 70 196 3.0 8.0 0.00 0.00 0.00 19 1010.4
20260504001037 71 174 3.0 7.0 0.00 0.00 0.00 20 1010.4
20260504000538 71 181 2.0 5.0 0.00 0.00 0.00 20 1010.5
20260504000058 71 0 0.0 4.0 0.00 0.00 0.00 21 1010.6
20260503235537 71 208 1.0 9.0 0.00 0.00 0.00 19 1010.7
20260503235037 71 202 2.0 9.0 0.00 0.00 0.00 19 1010.8
20260503234551 72 238 5.0 11.0 0.00 0.00 0.00 18 1010.8
20260503234040 72 235 4.0 11.0 0.00 0.00 0.00 17 1010.9
20260503233536 72 241 3.0 11.0 0.00 0.00 0.00 16 1010.8
20260503233050 72 258 5.0 11.0 0.00 0.00 0.00 16 1010.7
20260503232534 72 281 5.0 12.0 0.00 0.00 0.00 16 1010.7
20260503232036 72 248 5.0 12.0 0.00 0.00 0.00 16 1010.6
20260503231555 72 233 6.0 12.0 0.00 0.00 0.00 16 1010.4
20260503231038 72 280 6.0 10.0 0.00 0.00 0.00 17 1010.5
20260503230539 72 314 2.0 8.0 0.00 0.00 0.00 18 1010.4
20260503230051 72 266 3.0 8.0 0.00 0.00 0.00 17 1010.4
20260503225537 72 305 2.0 6.0 0.00 0.00 0.00 17 1010.5
20260503225037 72 278 2.0 9.0 0.00 0.00 0.00 18 1010.5
20260503224553 72 336 2.0 9.0 0.00 0.00 0.00 17 1010.6
20260503224037 73 9 2.0 9.0 0.00 0.00 0.00 20 1010.6
20260503223537 72 342 3.0 9.0 0.00 0.00 0.00 19 1010.6
20260503223047 72 290 2.0 11.0 0.00 0.00 0.00 17 1010.7
20260503222536 72 310 2.0 11.0 0.00 0.00 0.00 18 1010.7
20260503222037 72 325 2.0 13.0 0.00 0.00 0.00 17 1010.8
20260503221550 72 316 5.0 13.0 0.00 0.00 0.00 18 1010.8
20260503221040 72 312 5.0 11.0 0.00 0.00 0.00 18 1010.9
20260503220537 72 8 3.0 11.0 0.00 0.00 0.00 17 1011.1
20260503220049 72 331 3.0 9.0 0.00 0.00 0.00 19 1011.1
20260503215536 72 33 4.0 12.0 0.00 0.00 0.00 19 1011.2
20260503215037 73 267 3.0 16.0 0.00 0.00 0.00 20 1011.2
20260503214552 72 342 5.0 16.0 0.00 0.00 0.00 19 1011.4
20260503214037 72 11 8.0 15.0 0.00 0.00 0.00 19 1011.3
20260503213538 73 273 5.0 15.0 0.00 0.00 0.00 17 1011.5
20260503213106 73 21 8.0 15.0 0.00 0.00 0.00 18 1011.5
20260503212537 73 304 4.0 14.0 0.00 0.00 0.00 17 1011.6
20260503212037 72 0 2.0 7.0 0.00 0.00 0.00 16 1011.7
20260503211618 73 43 1.0 8.0 0.00 0.00 0.00 16 1011.7
20260503211040 73 320 3.0 8.0 0.00 0.00 0.00 18 1011.8
20260503210538 72 86 3.0 8.0 0.00 0.00 0.00 16 1011.8
20260503210047 72 29 4.0 8.0 0.00 0.00 0.00 17 1011.9
20260503205538 72 63 3.0 8.0 0.00 0.00 0.00 18 1012.0
20260503205039 72 11 0.0 8.0 0.00 0.00 0.00 17 1012.1
20260503204601 72 52 2.0 6.0 0.00 0.00 0.00 16 1012.3
20260503204039 72 54 2.0 6.0 0.00 0.00 0.00 19 1012.3
20260503203536 72 92 2.0 8.0 0.00 0.00 0.00 17 1012.4
20260503203054 71 0 3.0 8.0 0.00 0.00 0.00 16 1012.4
20260503202536 72 56 1.0 8.0 0.00 0.00 0.00 19 1012.5
20260503202039 72 0 1.0 6.0 0.00 0.00 0.00 16 1012.7
20260503201549 72 225 3.0 8.0 0.00 0.00 0.00 17 1012.8
20260503201035 72 289 3.0 8.0 0.00 0.00 0.00 19 1012.9
20260503200537 72 17 2.0 13.0 0.00 0.00 0.00 17 1012.9
20260503200052 72 16 7.0 13.0 0.00 0.00 0.00 17 1012.9
20260503195534 71 102 4.0 10.0 0.00 0.00 0.00 19 1013.0
20260503195037 71 63 5.0 10.0 0.00 0.00 0.00 20 1013.2
20260503194546 72 40 2.0 8.0 0.00 0.00 0.00 17 1013.2
20260503194037 72 33 2.0 7.0 0.00 0.00 0.00 19 1013.2
20260503193537 71 44 1.0 7.0 0.00 0.00 0.00 21 1013.3
20260503193049 70 45 2.0 6.0 0.00 0.00 0.00 20 1013.5
20260503192536 71 86 0.0 9.0 0.00 0.00 0.00 21 1013.5
20260503192036 71 360 5.0 9.0 0.00 0.00 0.00 19 1013.6
20260503191604 71 342 2.0 6.0 0.00 0.00 0.00 23 1013.6
20260503191037 71 96 1.0 5.0 0.00 0.00 0.00 20 1013.7
20260503190535 71 116 0.0 5.0 0.00 0.00 0.00 19 1013.6
20260503190049 71 10 0.0 7.0 0.00 0.00 0.00 22 1013.7
20260503185537 70 33 3.0 11.0 0.00 0.00 0.00 19 1013.7
20260503185037 70 104 1.0 11.0 0.00 0.00 0.00 22 1013.8
20260503184607 70 89 4.0 13.0 0.00 0.00 0.00 22 1013.6
20260503184039 69 100 6.0 18.0 0.00 0.00 0.00 22 1013.8
20260503183538 69 81 9.0 18.0 0.00 0.00 0.00 24 1013.8
20260503183048 69 61 11.0 16.0 0.00 0.00 0.00 21 1013.9
20260503182538 70 68 6.0 16.0 0.00 0.00 0.00 20 1014.0
20260503182038 71 81 8.0 14.0 0.00 0.00 0.00 21 1014.0
20260503181551 71 102 3.0 13.0 0.00 0.00 0.00 23 1014.1
20260503181039 70 95 7.0 13.0 0.00 0.00 0.00 21 1014.1
20260503180539 69 73 7.0 14.0 0.00 0.00 0.00 21 1014.2
20260503180053 69 107 6.0 14.0 0.00 0.00 0.00 19 1014.2
20260503175539 68 84 5.0 16.0 0.00 0.00 0.00 23 1014.4
20260503175039 68 73 7.0 16.0 0.00 0.00 0.00 23 1014.4
20260503174606 69 80 7.0 17.0 0.00 0.00 0.00 20 1014.4
20260503174038 70 87 11.0 17.0 0.00 0.00 0.00 23 1014.5
20260503173540 70 109 6.0 13.0 0.00 0.00 0.00 22 1014.4
20260503173105 70 95 8.0 12.0 0.00 0.00 0.00 22 1014.6
20260503172540 71 89 4.0 11.0 0.00 0.00 0.00 21 1014.7
20260503172039 71 110 3.0 9.0 0.00 0.00 0.00 22 1014.8
20260503171549 70 104 3.0 10.0 0.00 0.00 0.00 20 1014.8
20260503171039 71 113 2.0 10.0 0.00 0.00 0.00 21 1014.9
20260503170539 71 142 2.0 10.0 0.00 0.00 0.00 20 1015.0
20260503150536 59 101 8.0 14.0 0.00 0.00 0.00 31 1016.1
20260503131037 48 92 2.0 8.0 0.00 0.00 0.00 43 1016.3
20260503130537 48 92 2.0 8.0 0.00 0.00 0.00 44 1016.2
20260503110536 41 347 0.0 3.0 0.00 0.00 0.00 54 1015.4
20260503090104 45 0 0.0 3.0 0.00 0.00 0.00 55 1016.0
20260503081556 46 0 0.0 2.0 0.00 0.00 0.00 43 1016.0
20260503081039 46 347 0.0 2.0 0.00 0.00 0.00 47 1015.9
20260503080541 46 0 0.0 2.0 0.00 0.00 0.00 47 1016.0
20260503072538 50 203 3.0 6.0 0.00 0.00 0.00 38 1016.6
20260503072038 50 258 1.0 6.0 0.00 0.00 0.00 39 1016.7
20260503071607 50 38 3.0 8.0 0.00 0.00 0.00 39 1016.4
20260503071038 50 23 4.0 8.0 0.00 0.00 0.00 36 1016.4
20260503070538 49 20 4.0 8.0 0.00 0.00 0.00 35 1016.6
20260503070110 49 25 3.0 8.0 0.00 0.00 0.00 37 1016.5
20260503060105 49 337 1.0 5.0 0.00 0.00 0.00 44 1016.8
20260503055036 49 360 2.0 3.0 0.00 0.00 0.00 36 1016.7
20260503054555 50 0 1.0 3.0 0.00 0.00 0.00 40 1016.7
20260503054039 50 222 1.0 3.0 0.00 0.00 0.00 36 1016.7
20260503053538 50 13 0.0 2.0 0.00 0.00 0.00 39 1016.7
20260503053047 50 0 0.0 2.0 0.00 0.00 0.00 41 1016.6
20260503052538 50 0 0.0 2.0 0.00 0.00 0.00 32 1016.6
20260503052038 50 0 0.0 1.0 0.00 0.00 0.00 34 1016.6
20260503051551 50 0 0.0 1.0 0.00 0.00 0.00 32 1016.6